默认 日期 大小 文件数 浏览量 最新下载 xml
stuck in磁力链接相关资源由用户搜索指令自动获取,结果来源于网络,本站不存储任何资料,亦不承担任何责任,请于24小时内删除,搜索到1227个磁力,用时11ms。
    ... ": 438856}, "Stuck.in.the.Middle.S01E14.XviD-AFG.avi": 433752640, "Stuck.in.the.Middle ...
创建时间: 2018-12-24 08:22:55 大小:415.33 MB 文件数量:7 热度:8 最近下载:2025-05-16 19:36:02
    ... temporal.mp3": 8854903, "03 - xpressions in print.mp3": 19193936, "04 - avenue ... .org.mp3": 20154398, "01 - godot stuck in traffic.mp3": 19019955}
创建时间: 2018-12-24 08:33:31 大小:92.49 MB 文件数量:9 热度:15 最近下载:2025-09-17 13:25:04
    ... www.torrenting.me.txt": 79, "stuck.in.the.middle.s02e01.720p.hdtv ... .x264-w4f.mkv": 1903873511, "stuck.in.the.middle.s02e01.720p.hdtv ...
创建时间: 2018-12-24 08:39:50 大小:1.78 GB 文件数量:7 热度:13 最近下载:2025-08-02 03:48:04
    ... .png": 628235, "screen0004.png": 503025}, "stuck.in.the.middle.s02e09.hdtv.x264 ... -w4f.mkv": 190801172, "stuck.in.the.middle.s02e09.hdtv.x264 ...
创建时间: 2018-12-24 09:12:14 大小:183.9 MB 文件数量:7 热度:10 最近下载:2025-05-14 22:32:02
    {"Stuck in the Middle S02E01 Stuck in the Waterpark 480p HDrip X264 Solar.mp4": 473023199}
创建时间: 2018-12-24 13:27:08 大小:451.11 MB 文件数量:1 热度:14 最近下载:2025-09-19 06:07:03
    ... .mp3": 6512943, "Screwston - Vol 3 Stuck in da Mud.m3u": 272}
创建时间: 2018-12-24 13:57:17 大小:90.61 MB 文件数量:15 热度:8 最近下载:2023-04-14 05:30:12
    {"RARBG.txt": 30, "Stuck.In.Love.2012.720p.BluRay.H264.AAC-RARBG.mp4": 1256034338}
创建时间: 2018-12-24 14:40:44 大小:1.17 GB 文件数量:2 热度:9 最近下载:2025-02-17 19:42:01
    ... www.torrenting.com.txt": 240, "Stuck.in.the.Middle.S01E08.720p.HEVC ... .x265-MeGusta.mkv": 277042934, "Stuck.in.the.Middle.S01E08.720p.HEVC ...
创建时间: 2018-12-24 16:12:39 大小:269.75 MB 文件数量:7 热度:13 最近下载:2023-04-14 07:30:07
    {"Pics": {"directors_picks": {"aapplegate2_001.jpg": 181348, "aapplegate2_002.jpg": 197855, "aapplegate2_003.jpg": 232831, "aapplegate2_004.jpg": 305124, "aapplegate2_005.jpg": 284239, "aapplegate2_006.jpg": 286088, "aapplegate2_007.jpg": 284154, " ...
创建时间: 2018-12-24 18:49:17 大小:1.34 GB 文件数量:117 热度:27 最近下载:2025-01-28 06:38:02
    {"cover.jpg": 46169, "05. The Eclipse.mp3": 9469395, "08. The Descent.mp3": 20853558, "03. The Clearing.mp3": 12919650, "02. The Fools Song.mp3": 10853890, "06. The Affliction.mp3": 10468323, "07. The Lost Throne.mp3": 8950088, "04. The Nefarious Align.mp3 ...
创建时间: 2018-12-24 19:44:46 大小:97.36 MB 文件数量:9 热度:10 最近下载:2025-04-20 11:22:04
    {"sub": {"sil.bdrip.xvid-no1.srt": 95561}, "sample": {"sample.avi": 15800794}, "sil.bdrip.xvid-no1.avi": 1461992920, "sil.bdrip.xvid-no1.nfo": 16699}
创建时间: 2018-12-24 21:51:34 大小:1.38 GB 文件数量:4 热度:9 最近下载:2023-04-14 17:50:04
    ... mp3": 5532461, "08 Talking in Your Sleep.wma": 3874140, ... and giorgio moroder-together in electric dreams (extended mix ... 12230615, "05. Dusty Springfield - In Private (12'' Version).mp3": 10413747 ... "11. Talking Heads - Once In A Lifetime (Extended Version).mp3 ...
创建时间: 2018-12-25 00:47:35 大小:2.49 GB 文件数量:454 热度:13 最近下载:2024-08-10 23:03:01
    {"btaw_bridgette_b_vl051215_480p_1000.mp4": 295074761}
创建时间: 2018-12-25 02:04:45 大小:281.41 MB 文件数量:1 热度:26 最近下载:2025-07-15 08:32:02
    ... ": 380936}, "Stuck.in.the.Middle.S01E01.XviD-AFG.avi": 352167018, "Stuck.in.the.Middle ...
创建时间: 2018-12-25 03:36:52 大小:338.7 MB 文件数量:12 热度:8 最近下载:2023-04-15 05:50:13
    {"To keep us going please read.txt": 161, "stuck.in.the.middle.s02e14.web.x264-tbs[ettv].mkv": 199615771}
创建时间: 2018-12-25 06:25:55 大小:190.37 MB 文件数量:2 热度:9 最近下载:2025-04-22 15:01:55
    {"00. Cover.jpg": 44344, "01. Novaspace & Adina Butar - Stuck in the Shadow (Original Mix).mp3": 11100002}
创建时间: 2018-12-25 07:49:07 大小:10.63 MB 文件数量:2 热度:11 最近下载:2024-04-09 16:23:06
    {"01.jpg": 133342, "02.jpg": 48948, "03.jpg": 79372, "04.jpg": 83888, "05.jpg": 92189, "06.jpg": 91247, "07.jpg": 92625, "08.jpg": 101855, "09.jpg": 75302, "10.jpg": 86251, "11.jpg": 98260, "12.jpg": 84357, "13.jpg": 89783, "14.jpg": 94669, "15.jpg": 90789 ...
创建时间: 2018-12-25 15:21:06 大小:1.98 MB 文件数量:26 热度:17 最近下载:2024-12-30 19:56:02
    ... WWW.TORRENTING.COM.txt": 84, "Stuck.in.the.Middle.S03E01.720p.HEVC ... .x265-MeGusta.mkv": 559131937, "Stuck.in.the.Middle.S03E01.720p.HEVC ...
创建时间: 2018-12-25 16:59:45 大小:538.57 MB 文件数量:7 热度:8 最近下载:2023-04-15 16:10:05
    {"RARBG.txt": 30, "stuck.in.the.middle.s03e15.720p.hdtv.x264-w4f.mkv": 767099994, "stuck.in.the.middle.s03e15.720p.hdtv.x264-w4f.nfo": 5827}
创建时间: 2018-12-25 20:16:14 大小:731.57 MB 文件数量:3 热度:13 最近下载:2023-04-15 20:40:07
    ... ": 586732}, "Stuck.in.the.Middle.S01E13.XviD-AFG.avi": 594236792, "Stuck.in.the.Middle ...
创建时间: 2018-12-26 19:25:31 大小:568.62 MB 文件数量:7 热度:9 最近下载:2025-05-16 04:16:02